GW2259 Weather Reports


Display with metric or nautical units.
time (UTC)temp
F
wind
direction
speed
MPH
gust
MPH
rain 1hr
in
rain 24hr
in
rain mn
in
humidity
%
barometer
mb
20260904040040 84 162 8.0 15.0 0.00 0.00 0.00 58 1013.0
20260904034555 85 132 8.0 15.0 0.00 0.00 0.00 57 1013.1
20260904033042 85 129 4.0 7.0 0.00 0.00 0.00 57 1013.0
20260904031539 86 115 4.0 10.0 0.00 0.00 0.00 55 1012.7
20260904030040 87 122 8.0 13.0 0.00 0.00 0.00 53 1012.5
20260904024541 86 144 4.0 12.0 0.00 0.00 0.00 52 1012.3
20260904023043 86 122 6.0 10.0 0.00 0.00 0.00 52 1012.0
20260904021547 87 145 2.0 4.0 0.00 0.00 0.00 50 1011.8
20260904020045 89 172 3.0 6.0 0.00 0.00 0.00 47 1011.4
20260904014546 89 160 2.0 7.0 0.00 0.00 0.00 44 1011.3
20260904013042 90 195 5.0 9.0 0.00 0.00 0.00 44 1011.1
20260904011544 91 108 7.0 10.0 0.00 0.00 0.00 42 1010.8
20260904010050 91 107 7.0 11.0 0.00 0.00 0.00 42 1010.7
20260904004557 91 110 6.0 11.0 0.00 0.00 0.00 42 1010.5
20260904003045 93 105 3.0 5.0 0.00 0.00 0.00 41 1010.4
20260904001543 94 118 3.0 6.0 0.00 0.00 0.00 39 1010.5
20260904000053 95 123 3.0 5.0 0.00 0.00 0.00 37 1010.4
20260903234546 98 142 5.0 9.0 0.00 0.00 0.00 33 1010.3
20260903233042 99 126 6.0 12.0 0.00 0.00 0.00 33 1010.3
20260903231539 99 128 7.0 11.0 0.00 0.00 0.00 33 1010.2
20260903230036 99 141 6.0 13.0 0.00 0.00 0.00 33 1010.1
20260903224543 101 115 5.0 11.0 0.00 0.00 0.00 31 1010.0
20260903223043 102 141 5.0 15.0 0.00 0.00 0.00 31 1010.1
20260903221538 101 82 7.0 15.0 0.00 0.00 0.00 30 1010.2
20260903220045 102 162 4.0 12.0 0.00 0.00 0.00 31 1010.2
20260903214543 100 103 6.0 11.0 0.00 0.00 0.00 32 1010.3
20260903213041 101 120 8.0 14.0 0.00 0.00 0.00 32 1010.4
20260903211611 101 100 6.0 10.0 0.00 0.00 0.00 32 1010.5
20260903210040 100 96 3.0 6.0 0.00 0.00 0.00 30 1010.7
20260903204540 100 235 1.0 7.0 0.00 0.00 0.00 31 1010.9
20260903203044 101 137 6.0 10.0 0.00 0.00 0.00 30 1011.2
20260903201544 102 119 4.0 8.0 0.00 0.00 0.00 31 1011.4
20260903200042 101 117 7.0 10.0 0.00 0.00 0.00 31 1011.5
20260903194546 101 96 3.0 11.0 0.00 0.00 0.00 32 1011.6
20260903193048 101 169 1.0 9.0 0.00 0.00 0.00 32 1012.0
20260903191542 100 218 5.0 8.0 0.00 0.00 0.00 31 1012.3
20260903190044 99 213 3.0 8.0 0.00 0.00 0.00 35 1012.5
20260903184541 99 309 4.0 7.0 0.00 0.00 0.00 34 1012.7
20260903183039 97 210 3.0 8.0 0.00 0.00 0.00 39 1013.0
20260903181543 96 234 5.0 9.0 0.00 0.00 0.00 40 1013.3
20260903180044 96 264 5.0 10.0 0.00 0.00 0.00 42 1013.5
20260903174558 95 241 6.0 11.0 0.00 0.00 0.00 45 1013.8
20260903173045 94 207 5.0 10.0 0.00 0.00 0.00 45 1014.1
20260903171543 93 257 4.0 12.0 0.00 0.00 0.00 47 1014.2
20260903170104 93 221 4.0 13.0 0.00 0.00 0.00 51 1014.3
20260903164549 92 202 6.0 13.0 0.00 0.00 0.00 53 1014.3
20260903163044 90 246 4.0 12.0 0.00 0.00 0.00 56 1014.4
20260903161542 90 252 6.0 11.0 0.00 0.00 0.00 57 1014.5
20260903160048 89 220 6.0 11.0 0.00 0.00 0.00 59 1014.4
20260903154546 87 137 6.0 9.0 0.00 0.00 0.00 62 1014.4
20260903153046 87 229 4.0 12.0 0.00 0.00 0.00 63 1014.4
20260903151550 86 208 6.0 10.0 0.00 0.00 0.00 65 1014.6
20260903150046 85 220 6.0 11.0 0.00 0.00 0.00 66 1014.6
20260903144547 85 237 5.0 11.0 0.00 0.00 0.00 67 1014.5
20260903143044 84 203 6.0 12.0 0.00 0.00 0.00 69 1014.5
20260903141543 83 206 7.0 12.0 0.00 0.00 0.00 71 1014.6
20260903140045 82 200 6.0 11.0 0.00 0.00 0.00 71 1014.6
20260903134542 82 222 5.0 10.0 0.00 0.00 0.00 73 1014.6
20260903133051 81 211 6.0 11.0 0.00 0.00 0.00 75 1014.6
20260903131552 80 189 5.0 9.0 0.00 0.00 0.00 76 1014.6
20260903130039 79 221 3.0 8.0 0.00 0.00 0.00 77 1014.4
20260903124544 78 203 2.0 8.0 0.00 0.00 0.00 80 1014.3
20260903123042 76 220 2.0 5.0 0.00 0.00 0.00 81 1014.1
20260903121544 76 220 2.0 6.0 0.00 0.00 0.00 81 1013.9
20260903120043 76 175 2.0 6.0 0.00 0.00 0.00 81 1013.8
20260903114543 76 212 2.0 7.0 0.00 0.00 0.00 81 1013.7
20260903113042 75 244 1.0 2.0 0.00 0.00 0.00 81 1013.7
20260903111615 75 0 0.0 2.0 0.00 0.00 0.00 79 1013.7
20260903110041 75 229 0.0 5.0 0.00 0.00 0.00 79 1013.6
20260903104557 75 207 0.0 1.0 0.00 0.00 0.00 78 1013.5
20260903103042 75 0 0.0 3.0 0.00 0.00 0.00 77 1013.4
20260903101546 75 0 0.0 3.0 0.00 0.00 0.00 76 1013.5
20260903100042 75 257 0.0 2.0 0.00 0.00 0.00 75 1013.5
20260903094547 75 0 0.0 1.0 0.00 0.00 0.00 73 1013.6
20260903093045 75 219 0.0 2.0 0.00 0.00 0.00 72 1013.6
20260903091539 75 0 0.0 0.0 0.00 0.00 0.00 72 1013.6
20260903090048 75 0 0.0 1.0 0.00 0.00 0.00 70 1013.7
20260903084543 75 262 0.0 1.0 0.00 0.00 0.00 70 1013.6
20260903083040 75 0 0.0 2.0 0.00 0.00 0.00 70 1013.7
20260903081542 74 209 0.0 1.0 0.00 0.00 0.00 71 1013.8
20260903080038 75 0 0.0 2.0 0.00 0.00 0.00 69 1013.9
20260903074542 75 0 0.0 0.0 0.00 0.00 0.00 70 1014.1
20260903073047 74 0 0.0 0.0 0.00 0.00 0.00 71 1014.1
20260903071540 75 0 0.0 0.0 0.00 0.00 0.00 70 1014.2
20260903070046 76 0 0.0 0.0 0.00 0.00 0.00 68 1014.1
20260903064544 76 0 0.0 0.0 0.00 0.00 0.00 69 1014.2
20260903063042 76 0 0.0 0.0 0.00 0.00 0.00 68 1014.4
20260903061556 76 0 0.0 0.0 0.00 0.00 0.00 68 1014.3
20260903060039 77 0 0.0 2.0 0.00 0.00 0.00 67 1014.1
20260903054542 79 186 1.0 2.0 0.00 0.00 0.00 60 1014.1
20260903053100 80 132 2.0 3.0 0.00 0.00 0.00 60 1014.2
20260903051544 80 148 1.0 2.0 0.00 0.00 0.00 59 1014.2
20260903050044 81 130 2.0 4.0 0.00 0.00 0.00 58 1014.1
20260903044539 82 131 3.0 7.0 0.00 0.00 0.00 55 1014.0
20260903043043 83 122 4.0 8.0 0.00 0.00 0.00 54 1014.2
20260903041543 82 107 4.0 6.0 0.00 0.00 0.00 55 1014.1